Regional Weather Roundup
Issued by NWS Portland, ME

Current Version | Previous Version | Text Only | Print | Product List | Glossary Off
Versions: 1 2 3 4 5 6 7 8 9 10 11 12 13 14 15 16 17 18 19 20 21 22 23 24 25 26 27 28 29 30 31 32 33 34 35 36 37 38 39 40 41 42 43 44 45 46 47 48 49 50
000 ASUS41 KGYX 270110 RWRGYX WEATHER ROUNDUP FOR MAINE AND NEW HAMPSHIRE NATIONAL WEATHER SERVICE GRAY ME 900 PM EDT SUN MAR 26 2017 MEZ002-005-006-010-012-015-018-020-021-024-026-027-029-270200- MAINE CITY SKY/WX TMP DP RH WIND PRES REMARKS PORTLAND CLOUDY 34 23 64 S6 30.47F SANFORD CLOUDY 33 24 69 CALM 30.46F BAR HARBOR PTCLDY 29 19 66 SW8 30.50S WISCASSET CLOUDY 34 23 64 CALM 30.49F ROCKLAND CLOUDY 32 20 61 SW5 30.50 FRYEBURG CLOUDY 34 19 54 S7 30.44R LEWISTONAUBURN CLOUDY 32 21 64 S6 30.45F AUGUSTA CLOUDY 31 17 56 S7 30.46F WATERVILLE CLOUDY 32 19 58 S6 30.43S BANGOR MOCLDY 30 19 63 S9 30.47S GREENVILLE N/A 29 5 36 SE5 30.34F MILLINOCKET CLOUDY 29 11 47 CALM 30.44S HOULTON CLOUDY 26 3 37 CALM 30.43F PRESQUE ISLE PTCLDY 22 7 52 N3 30.44F FRENCHVILLE CLEAR 27 -14 16 NE3 30.40S CARIBOU PTCLDY 26 1 34 CALM 30.43R $$ NHZ002-005-008-009-011-012-014-270200- NEW HAMPSHIRE CITY SKY/WX TMP DP RH WIND PRES REMARKS PORTSMOUTH CLOUDY 35 26 70 E6 30.45S ROCHESTER CLOUDY 33 24 69 E3 30.44F NASHUA CLOUDY 35 27 72 E8 30.45S MANCHESTER CLOUDY 35 24 64 SE6 30.43F CONCORD CLOUDY 34 25 69 E6 30.44S LACONIA CLOUDY 34 23 64 CALM 30.43F PLYMOUTH CLOUDY 35 23 63 SE3 30.42S BERLIN CLOUDY 36 15 42 S5 30.33F WHITEFIELD CLOUDY 37 18 46 CALM 30.33S JAFFREY CLOUDY 32 26 78 CALM 30.38F KEENE CLOUDY 35 27 72 VRB3 30.40F LEBANON CLOUDY 34 30 85 VRB3 30.38S MT WASHINGTON FOG 28 28 100 W26 N/A VSB 0 WCI 13 $$ VTZ005-007-008-270200- VERMONT CITY SKY/WX TMP DP RH WIND PRES REMARKS ST JOHNSBURY N/A 37 20 50 MISG 30.33F MONTPELIER CLOUDY 34 23 64 S6 30.36F BURLINGTON CLOUDY 36 29 75 S10 30.29F $$ MAZ007-012-024-CTZ003-RIZ002-NYZ038-NYZ072-270200- SOUTHERN NEW ENGLAND AND NY CITY SKY/WX TMP DP RH WIND PRES REMARKS BOSTON CLOUDY 37 29 72 SE13 30.45F WORCESTER CLOUDY 33 26 75 E6 30.38S NANTUCKET LGT RAIN 38 29 70 E12 30.44F PROVIDENCE CLOUDY 38 28 67 E9 30.43F HARTFORD CLOUDY 38 31 76 SE5 30.40R ALBANY CLOUDY 37 30 75 S7 30.35S NEW YORK CITY DRIZZLE 42 37 82 NE8 30.37R $$ ANZ081-ANZ082-ANZ150-NHZ014-MEZ023>029-270200- COASTAL MARINE OBSERVATIONS STATION/POSITION TIME TEMP WIND PRES WAVE AIR SEA DIR/SP/G HT/PER (UTC) (F) (DEG/KT/KT) (MB) (FT/S) MOUNT DESERT ROC 0100 32 1032.9F MATINICUS ROCK 0000 32 200/ 10/ 11 1032.6F ISLE OF SHOALS 0000 35 120/ 10/ 12 1031.7F JEFFREYS LEDGE 0036 41 N/A 3/ 6 CASHES LEDGE BUO 2350 33 40 1033.5 2/ 6 GEORGES BANK BUO 2350 37 41 1032.2 3/ 8 $$ .............KEY.............. WCI - WIND CHILL TC - TEMPERATURE IN CELSIUS VSB - VISIBILITY IN MILES HX - HEAT INDEX FAIR- INDICATES FEW OR NO CLOUDS BELOW 12,000 FT, WITH NO SIGNIFICANT WEATHER AND/OR OBSTRUCTIONS TO VISIBILITY.

USA.gov is the U.S. government's official web portal to all federal, state and local government web resources and services.